GW1765 Weather Reports


time (UTC)temp
C
wind
direction
speed
KPH
gust
KPH
rain 1hr
cm
rain 24hr
cm
rain mn
cm
humidity
%
barometer
mb
20260508211109 15 323 25.7 37.0 0.00 1.63 0.03 84 1003.7
20260508210104 15 337 30.6 40.2 0.00 1.63 0.03 85 1003.6
20260508205100 15 340 24.1 38.6 0.00 1.63 0.03 88 1003.5
20260508204058 14 343 24.1 32.2 0.00 1.63 0.03 92 1003.6
20260508203053 14 341 27.4 33.8 0.00 1.63 0.03 95 1003.7
20260508202050 14 321 22.5 32.2 0.00 1.63 0.03 97 1003.6
20260508201049 14 337 20.9 32.2 0.00 1.63 0.03 99 1003.5
20260508200045 14 323 20.9 29.0 0.00 1.63 0.03 99 1003.4
20260508195039 14 309 25.7 33.8 0.00 1.63 0.03 99 1003.4
20260508194036 14 345 22.5 30.6 0.00 1.63 0.03 99 1003.2
20260508193033 14 357 19.3 27.4 0.00 1.63 0.03 99 1003.3
20260508192052 13 354 14.5 22.5 0.00 1.63 0.03 99 1003.4
20260508191027 13 347 11.3 17.7 0.00 1.63 0.03 99 1003.5
20260508190022 13 0 11.3 19.3 0.03 1.63 0.03 99 1003.4
20260508185020 13 8 12.9 17.7 0.03 1.63 0.03 99 1003.4
20260508184038 13 357 11.3 16.1 0.03 1.63 0.03 99 1003.5
20260508183115 13 10 14.5 24.1 0.03 1.63 0.03 99 1003.3
20260508182111 13 345 20.9 27.4 0.03 1.63 0.03 99 1003.2
20260508181105 14 303 19.3 30.6 0.03 1.63 0.03 99 1003.2
20260508175058 14 330 19.3 32.2 0.00 1.60 0.00 99 1003.1
20260508174057 14 320 22.5 32.2 0.00 1.60 0.00 99 1002.9
20260508173051 15 319 29.0 40.2 0.00 1.60 0.00 99 1003.1
20260508172049 15 314 30.6 41.8 0.00 1.60 0.00 99 1003.0
20260508171044 15 351 25.7 33.8 0.00 1.60 0.00 99 1002.7
20260508170040 15 332 24.1 40.2 0.00 1.60 0.00 99 1002.8
20260508165038 15 288 27.4 38.6 0.00 1.60 0.00 99 1002.9
20260508164033 15 330 27.4 35.4 0.00 1.60 0.00 99 1002.9
20260508163029 15 351 27.4 33.8 0.00 1.60 0.00 99 1002.8
20260508162047 15 323 19.3 30.6 0.00 1.60 0.00 99 1002.9
20260508161103 15 332 20.9 27.4 0.00 1.60 0.00 99 1003.0
20260508160021 15 322 17.7 24.1 0.00 1.60 0.00 99 1003.1
20260508155016 14 339 14.5 22.5 0.00 1.60 0.00 99 1003.3
20260508154133 14 339 14.5 20.9 0.00 1.60 0.00 99 1003.3
20260508153109 14 356 12.9 19.3 0.00 1.60 0.00 99 1003.5
20260508152106 14 342 11.3 17.7 0.00 1.60 0.00 99 1003.6
20260508151101 14 322 3.2 17.7 0.00 1.60 0.00 99 1003.7
20260508150100 14 335 3.2 17.7 0.00 1.60 0.00 99 1003.6
20260508145054 15 270 1.6 16.1 0.00 1.60 0.00 99 1003.5
20260508144116 15 311 1.6 12.9 0.00 1.60 0.00 99 1003.5
20260508143048 15 301 1.6 12.9 0.00 1.60 0.00 99 1003.6
20260508142045 15 328 1.6 9.7 0.00 1.60 0.00 99 1003.6
20260508141042 15 293 0.0 12.9 0.00 1.60 0.00 99 1003.6
20260508140101 15 0.0 0.0 0.00 1.60 0.00 99 1003.7
20260508135033 15 309 0.0 11.3 0.00 1.60 0.00 99 1003.8
20260508134032 15 321 1.6 12.9 0.00 1.60 0.00 99 1003.9
20260508133026 15 345 1.6 12.9 0.00 1.60 0.00 99 1004.0
20260508132023 15 332 0.0 11.3 0.00 1.60 0.00 99 1004.0
20260508131020 15 351 0.0 12.9 0.00 1.60 0.00 99 1004.2
20260508130036 15 329 3.2 12.9 0.00 1.60 0.00 99 1004.2
20260508125112 14 347 0.0 12.9 0.00 1.60 0.00 99 1004.3
20260508124129 14 342 3.2 12.9 0.03 1.60 0.00 99 1004.3
20260508123105 13 337 6.4 14.5 0.03 1.60 0.00 99 1004.4
20260508122102 14 339 6.4 14.5 0.03 1.60 0.00 99 1004.3
20260508121058 14 316 3.2 14.5 0.03 1.63 0.00 99 1004.4
20260508120055 14 310 1.6 12.9 0.03 1.63 0.00 99 1004.4
20260508115052 15 293 0.0 12.9 0.03 1.63 1.63 99 1004.4
20260508114048 15 331 1.6 12.9 0.00 1.63 1.60 99 1004.1
20260508113044 15 348 1.6 12.9 0.00 1.63 1.60 99 1004.2
20260508112041 15 330 3.2 12.9 0.00 1.65 1.60 99 1004.3
20260508111039 15 310 3.2 12.9 0.00 1.65 1.60 99 1004.3
20260508110034 15 352 1.6 12.9 0.00 1.65 1.60 99 1004.4
20260508105030 15 321 1.6 12.9 0.00 1.68 1.60 99 1004.3
20260508104030 15 315 0.0 12.9 0.00 1.68 1.60 99 1004.5
20260508103024 15 5 1.6 12.9 0.00 1.70 1.60 99 1004.6
20260508102020 15 339 3.2 16.1 0.03 1.70 1.60 99 1004.7
20260508101016 15 329 0.0 14.5 0.13 1.70 1.60 99 1004.8
20260508100114 15 343 1.6 16.1 0.33 1.70 1.60 99 1004.8
20260508095111 15 308 8.0 19.3 0.51 1.70 1.60 99 1004.8
20260508094106 13 344 6.4 20.9 0.71 1.70 1.60 99 1004.9
20260508093125 15 0.0 6.4 0.94 1.70 1.60 99 1004.8
20260508092100 16 0 0.0 16.1 0.94 1.68 1.55 99 1003.9
20260508091058 16 293 0.0 12.9 0.84 1.60 1.47 99 1003.9
20260508090053 16 0 0.0 3.2 0.64 1.37 1.27 99 1004.2
20260508085109 16 315 0.0 8.0 0.46 1.19 1.09 99 1004.1
20260508084046 16 301 0.0 17.7 0.33 0.99 0.86 99 1004.3
20260508083044 16 345 1.6 17.7 0.23 0.79 0.66 99 1004.2
20260508082039 16 319 8.0 27.4 0.30 0.76 0.64 99 1004.3
20260508081035 16 351 8.0 29.0 0.30 0.76 0.64 99 1004.4
20260508080053 16 359 16.1 33.8 0.30 0.76 0.64 98 1004.1
20260508075028 16 335 30.6 54.7 0.30 0.76 0.64 97 1003.8
20260508074025 16 353 48.3 69.2 0.28 0.66 0.53 96 1003.4
20260508073022 16 345 54.7 85.3 0.20 0.53 0.43 95 1003.6
20260508072039 16 338 45.1 69.2 0.13 0.46 0.33 95 1003.8
20260508071136 16 2 54.7 93.3 0.13 0.46 0.33 95 1003.6
20260508070111 16 346 64.4 90.1 0.13 0.46 0.33 97 1003.8
20260508065130 16 2 53.1 78.9 0.13 0.46 0.33 97 1004.1
20260508064103 16 349 56.3 78.9 0.05 0.38 0.28 96 1004.9
20260508063100 16 348 53.1 85.3 0.00 0.33 0.20 96 1004.8
20260508062056 16 350 49.9 83.7 0.05 0.33 0.20 96 1004.3
20260508061116 16 346 59.5 95.0 0.05 0.33 0.20 96 1004.5
20260508060049 16 357 53.1 85.3 0.05 0.33 0.20 97 1004.5
20260508055046 16 352 53.1 72.4 0.10 0.33 0.20 97 1004.7
20260508054042 16 356 54.7 82.1 0.10 0.33 0.20 96 1004.8
20260508053039 16 356 54.7 88.5 0.13 0.33 0.20 96 1004.7
20260508052118 16 14 57.9 91.7 0.10 0.28 0.15 96 1004.8
20260508051032 16 0 56.3 74.0 0.10 0.28 0.15 96 1004.9
20260508050029 16 337 53.1 80.5 0.10 0.28 0.15 96 1004.9
20260508045025 16 2 49.9 74.0 0.10 0.23 0.13 96 1005.0
20260508044022 16 352 49.9 70.8 0.10 0.23 0.13 95 1005.0
20260508043018 16 356 48.3 78.9 0.05 0.20 0.10 94 1005.4
20260508042115 16 356 48.3 66.0 0.03 0.18 0.05 93 1005.8
20260508041113 16 13 48.3 69.2 0.03 0.18 0.05 92 1005.8
20260508040109 16 3 54.7 74.0 0.03 0.18 0.05 91 1005.8
20260508035104 16 339 53.1 78.9 0.00 0.15 0.03 90 1005.8
20260508034102 16 348 54.7 80.5 0.00 0.15 0.03 90 1006.0
20260508033057 16 351 53.1 74.0 0.00 0.15 0.03 88 1006.1
20260508032054 16 349 49.9 69.2 0.00 0.15 0.03 86 1006.3
20260508031050 16 353 48.3 78.9 0.00 0.15 0.03 85 1006.4
20260508030047 16 0 48.3 66.0 0.00 0.15 0.03 85 1006.4
20260508025044 16 347 46.7 69.2 0.00 0.15 0.03 86 1006.6
20260508024042 16 347 45.1 75.6 0.00 0.15 0.03 87 1006.8
20260508023036 16 0 43.5 66.0 0.00 0.15 0.03 87 1007.1
20260508022035 16 4 49.9 67.6 0.00 0.15 0.03 89 1007.4
20260508021029 16 350 48.3 74.0 0.00 0.15 0.03 90 1007.6
20260508020026 16 0 46.7 64.4 0.00 0.15 0.03 90 1007.5
20260508015022 16 350 46.7 69.2 0.00 0.15 0.03 88 1007.8
20260508014018 16 5 46.7 67.6 0.00 0.15 0.03 86 1008.1
20260508013115 16 348 48.3 70.8 0.00 0.15 0.03 85 1008.4
20260508012112 16 360 45.1 64.4 0.00 0.15 0.03 84 1008.8
20260508011110 16 351 46.7 69.2 0.00 0.15 0.03 83 1009.3
20260508010106 16 351 45.1 57.9 0.00 0.15 0.03 84 1009.6
20260508005103 16 352 45.1 64.4 0.00 0.15 0.03 84 1009.8
20260508004059 16 350 48.3 69.2 0.00 0.15 0.03 84 1010.0
20260508003137 16 12 41.8 62.8 0.00 0.15 0.03 83 1010.2
20260508002050 16 344 41.8 61.2 0.00 0.15 0.03 84 1010.4
20260508001047 16 1 41.8 61.2 0.00 0.15 0.03 84 1010.7
20260508000043 16 350 40.2 64.4 0.00 0.15 0.03 86 1011.2
20260507235041 16 359 48.3 66.0 0.00 0.15 0.03 86 1011.3
20260507234039 16 2 43.5 62.8 0.00 0.15 0.03 87 1011.3
20260507233033 16 7 43.5 67.6 0.00 0.15 0.03 88 1011.6
20260507232029 16 358 43.5 62.8 0.00 0.15 0.03 89 1011.5
20260507231026 16 6 40.2 59.5 0.00 0.15 0.03 89 1011.7
20260507230024 16 346 37.0 59.5 0.00 0.15 0.03 88 1012.3
20260507225018 16 344 40.2 59.5 0.00 0.15 0.03 89 1012.6
20260507224016 16 9 38.6 54.7 0.00 0.15 0.03 89 1012.8
20260507223113 16 11 40.2 64.4 0.00 0.15 0.03 90 1012.9
20260507222131 16 355 35.4 53.1 0.00 0.15 0.03 90 1013.2
20260507221105 16 347 38.6 51.5 0.00 0.15 0.03 89 1013.4
20260507220104 16 348 45.1 61.2 0.00 0.15 0.03 90 1013.5
20260507215058 16 351 43.5 61.2 0.00 0.15 0.03 91 1013.6
20260507214055 16 20 43.5 67.6 0.00 0.15 0.03 91 1013.8
20260507213051 16 5 45.1 61.2 0.00 0.15 0.03 91 1013.8
20260507212048 16 334 37.0 53.1 0.00 0.15 0.03 90 1014.1